Nebraska City, NE

11:02 AM CDT on July 24, 2017 (GMT -0500)
Nebraska City Municipal

Weather History for KAFK - May, 2013

Change the Weather History Date:

Monday, May 20, 2013

  Actual Average (KSDA) Record (KSDA)
Temperature  
Mean Temperature 65 °F -  
Max Temperature 74 °F 76 °F 93 °F (1964)
Min Temperature 56 °F 52 °F 37 °F (1981)
Growing Degree Days 15 (Base 50)    
Moisture  
Dew Point 58 °F    
Average Humidity 77    
Maximum Humidity 100    
Minimum Humidity 56    
Precipitation  
Precipitation 0.01 in - - ()
Sea Level Pressure  
Sea Level Pressure 29.63 in    
Wind  
Wind Speed 12 mph (SW)    
Max Wind Speed 20 mph    
Max Gust Speed 24 mph    
Visibility 10 miles    
Events      
Averages and records for this station are not official NWS values.
T = Trace of Precipitation, MM = Missing Value Source: NWS Daily Summary

Daily Weather History Graph

Daily Weather History Graph

Search for Another Location

Airport or City:

Trip Planner

Search our weather history database for the weather conditions in past years. The results will help you decide how hot, cold, wet, or windy it might be!

Date:

Astronomy

May. 20, 2013 Rise Set
Actual Time 6:02 AM CDT 8:38 PM CDT
Civil Twilight 5:30 AM CDT 9:10 PM CDT
Nautical Twilight 4:51 AM CDT 9:49 PM CDT
Astronomical Twilight 4:07 AM CDT 10:34 PM CDT
Moon 3:46 PM CDT (5/20) 2:58 AM CDT (5/20)
Length of Visible Light 15h 39m
Length of Day
14h 36m
Waxing Gibbous, 75% of the Moon is Illuminated
May 20
Waxing Gibbous
May 24
Full
May 31
Last Quarter
Jun 8
New
Jun 16
First Quarter

Hourly Weather History & Observations

Time (CDT) Temp. Dew Point Humidity Pressure Visibility Wind Dir Wind Speed Gust Speed Precip Events Conditions
12:15 AM 60.3 °F 60.3 °F 100% 29.58 in 10.0 mi South 9.2 mph - N/A   Clear
12:35 AM 60.3 °F 60.3 °F 100% 29.60 in 10.0 mi South 11.5 mph - N/A   Clear
12:55 AM 60.3 °F 60.3 °F 100% 29.61 in 10.0 mi South 13.8 mph - N/A   Clear
1:15 AM 59.9 °F 59.9 °F 100% 29.59 in 7.0 mi SSW 9.2 mph - N/A   Clear
1:35 AM 59.0 °F 59.0 °F 100% 29.58 in 5.0 mi SSE 5.8 mph - N/A   Clear
1:55 AM 58.6 °F 58.6 °F 100% 29.59 in 5.0 mi SSW 10.4 mph - N/A   Clear
2:15 AM 59.0 °F 59.0 °F 100% 29.57 in 10.0 mi SSW 9.2 mph - N/A   Clear
2:35 AM 58.5 °F 58.5 °F 100% 29.57 in 10.0 mi South 6.9 mph - N/A   Clear
3:35 AM 57.6 °F 57.6 °F 100% 29.58 in 10.0 mi South 9.2 mph - N/A   Clear
3:55 AM 57.2 °F 56.8 °F 99% 29.58 in 10.0 mi SSW 6.9 mph - N/A   Clear
4:35 AM 57.0 °F 55.6 °F 95% 29.59 in 10.0 mi SSW 8.1 mph - N/A   Clear
4:55 AM 56.7 °F 55.6 °F 96% 29.60 in 10.0 mi SSW 11.5 mph - N/A   Clear
5:15 AM 56.8 °F 55.4 °F 95% 29.60 in 10.0 mi SSW 12.7 mph - N/A   Clear
5:35 AM 56.7 °F 55.4 °F 96% 29.60 in 10.0 mi SSW 15.0 mph - N/A   Clear
5:55 AM 56.8 °F 55.4 °F 95% 29.61 in 10.0 mi SSW 13.8 mph - N/A   Clear
6:15 AM 56.7 °F 55.2 °F 95% 29.62 in 10.0 mi SW 12.7 mph - N/A   Clear
6:35 AM 57.2 °F 55.0 °F 92% 29.63 in 10.0 mi SW 12.7 mph - N/A   Clear
7:15 AM 58.5 °F 56.5 °F 93% 29.64 in 10.0 mi SW 13.8 mph - N/A   Mostly Cloudy
7:35 AM 58.8 °F 56.8 °F 93% 29.66 in 10.0 mi SW 12.7 mph - N/A   Overcast
7:55 AM 60.1 °F 57.6 °F 91% 29.66 in 10.0 mi SW 16.1 mph - N/A   Mostly Cloudy
8:15 AM 61.2 °F 58.6 °F 91% 29.67 in 10.0 mi WSW 15.0 mph - N/A   Scattered Clouds
8:35 AM 62.4 °F 59.4 °F 90% 29.67 in 10.0 mi WSW 15.0 mph - 0.01 in   Clear
8:55 AM 63.1 °F 59.2 °F 87% 29.69 in 10.0 mi WSW 18.4 mph 21.9 mph 0.01 in   Scattered Clouds
9:15 AM 63.9 °F 59.5 °F 86% 29.69 in 10.0 mi WSW 17.3 mph - N/A   Mostly Cloudy
9:35 AM 64.6 °F 59.4 °F 83% 29.69 in 10.0 mi WSW 13.8 mph - N/A   Scattered Clouds
9:55 AM 66.0 °F 59.0 °F 78% 29.69 in 10.0 mi West 15.0 mph 18.4 mph N/A   Scattered Clouds
10:35 AM 67.5 °F 57.2 °F 70% 29.69 in 10.0 mi WSW 10.4 mph 16.1 mph N/A   Clear
10:55 AM 68.7 °F 58.3 °F 69% 29.69 in 10.0 mi SW 12.7 mph - N/A   Clear
11:15 AM 68.9 °F 58.6 °F 70% 29.69 in 10.0 mi SW 10.4 mph 17.3 mph N/A   Scattered Clouds
11:35 AM 69.3 °F 58.1 °F 68% 29.69 in 10.0 mi SW 11.5 mph - N/A   Scattered Clouds
11:55 AM 70.2 °F 58.1 °F 65% 29.70 in 10.0 mi SSW 12.7 mph 17.3 mph N/A   Scattered Clouds
12:15 PM 71.1 °F 58.6 °F 65% 29.70 in 10.0 mi SW 15.0 mph 19.6 mph N/A   Scattered Clouds
12:35 PM 72.0 °F 58.1 °F 62% 29.69 in 10.0 mi SSW 13.8 mph 23.0 mph N/A   Scattered Clouds
12:55 PM 73.0 °F 58.5 °F 60% 29.69 in 10.0 mi SSW 15.0 mph 18.4 mph N/A   Scattered Clouds
1:15 PM 72.7 °F 58.5 °F 61% 29.68 in 10.0 mi SSW 11.5 mph - N/A   Scattered Clouds
1:55 PM 72.9 °F 57.9 °F 59% 29.69 in 10.0 mi SSW 17.3 mph 24.2 mph N/A   Scattered Clouds
2:15 PM 74.3 °F 58.1 °F 57% 29.68 in 10.0 mi SSW 16.1 mph 19.6 mph N/A   Scattered Clouds
2:35 PM 73.6 °F 57.2 °F 56% 29.67 in 10.0 mi SSW 19.6 mph - N/A   Scattered Clouds
2:55 PM 73.9 °F 59.9 °F 61% 29.67 in 10.0 mi SSW 18.4 mph - N/A   Scattered Clouds
3:15 PM 74.3 °F 59.0 °F 59% 29.67 in 10.0 mi SSW 17.3 mph 23.0 mph N/A   Scattered Clouds
3:35 PM 72.7 °F 59.5 °F 63% 29.67 in 10.0 mi SSW 17.3 mph 21.9 mph N/A   Scattered Clouds
3:55 PM 73.4 °F 60.4 °F 64% 29.66 in 10.0 mi SSW 19.6 mph 23.0 mph N/A   Clear
4:15 PM 73.0 °F 60.8 °F 65% 29.65 in 10.0 mi SSW 13.8 mph 24.2 mph N/A   Clear
4:35 PM 72.5 °F 61.2 °F 67% 29.64 in 10.0 mi SSW 16.1 mph 23.0 mph N/A   Clear
4:55 PM 71.4 °F 61.0 °F 70% 29.62 in 10.0 mi SSW 16.1 mph - N/A   Clear
5:15 PM 73.2 °F 60.8 °F 65% 29.61 in 10.0 mi SW 15.0 mph 18.4 mph N/A   Clear
5:35 PM 73.2 °F 59.9 °F 63% 29.60 in 10.0 mi SW 17.3 mph 21.9 mph N/A   Clear
5:55 PM 74.3 °F 59.2 °F 59% 29.59 in 10.0 mi SW 17.3 mph - N/A   Clear
6:15 PM 74.3 °F 59.4 °F 60% 29.59 in 10.0 mi SW 12.7 mph 23.0 mph N/A   Clear
6:35 PM 74.3 °F 59.2 °F 59% 29.59 in 10.0 mi SSW 13.8 mph - N/A   Clear
6:55 PM 74.1 °F 59.4 °F 60% 29.59 in 10.0 mi SW 13.8 mph - N/A   Clear
7:15 PM 72.9 °F 59.4 °F 62% 29.59 in 10.0 mi SSW 11.5 mph - N/A   Clear
7:35 PM 72.1 °F 59.9 °F 65% 29.59 in 10.0 mi SSW 11.5 mph - N/A   Clear
7:55 PM 70.7 °F 60.3 °F 69% 29.59 in 10.0 mi SSW 9.2 mph - N/A   Clear
8:15 PM 70.2 °F 60.6 °F 72% 29.59 in 10.0 mi SSW 10.4 mph - N/A   Scattered Clouds
8:35 PM 69.6 °F 60.8 °F 73% 29.60 in 10.0 mi SSW 11.5 mph - N/A   Mostly Cloudy
9:15 PM 66.6 °F 61.0 °F 82% 29.59 in 10.0 mi SW 6.9 mph - N/A   Clear
9:35 PM 65.3 °F 60.4 °F 84% 29.60 in 10.0 mi SSW 6.9 mph - N/A   Scattered Clouds
9:55 PM 66.2 °F 59.5 °F 79% 29.61 in 10.0 mi WSW 10.4 mph - N/A   Mostly Cloudy
10:15 PM 64.8 °F 57.6 °F 77% 29.61 in 10.0 mi WSW 10.4 mph 16.1 mph N/A   Scattered Clouds
10:35 PM 64.4 °F 52.3 °F 65% 29.62 in 10.0 mi WSW 8.1 mph - N/A   Scattered Clouds
10:55 PM 64.6 °F 50.0 °F 59% 29.63 in 10.0 mi West 11.5 mph - N/A   Mostly Cloudy
11:15 PM 63.0 °F 50.0 °F 63% 29.63 in 10.0 mi West 9.2 mph - N/A   Scattered Clouds
11:35 PM 62.8 °F 50.2 °F 63% 29.64 in 10.0 mi West 15.0 mph - N/A   Clear
11:55 PM 62.2 °F 51.3 °F 67% 29.65 in 10.0 mi West 12.7 mph 19.6 mph N/A   Clear